Home   Weather   Chatham-Kent   Past weeks

Flag for Canada Past Weather in Chatham-Kent, Ontario, Canada — Yesterday and Last 2 Weeks

Now
40 °F

Chilly.


Feels Like: 33 °F
Forecast: 33 / 41 °F
Wind: 10 mph from Southeast

Location: Erieau

Current Time: Dec 4, 2016 at 1:44:10 pm

Latest Report: Dec 4, 2016 at 1:00 pm


Visibility: N/A

Pressure: 30.15 "Hg

Humidity: 63%

Dew Point: 28 °F

Location of Chatham-KentLocation

Past Weather in Chatham-Kent — Graph

°F

Chatham-Kent Temperature Yesterday

Maximum temperature yesterday: 40 °F (at 2:00 pm)
Minimum temperature yesterday: 35 °F (at 5:00 am)
Average temperature yesterday: 38 °F

High & Low Weather Summary for the Past Weeks

 TemperatureHumidityPressure
High54 °F (Nov 30, 7:00 am)97% (Nov 24, 4:00 am)30.36 "Hg (Nov 24, 4:00 am)
Low26 °F (Nov 22, 6:00 am)43% (Nov 21, 3:00 pm)29.47 "Hg (Nov 29, 2:00 am)
Average41 °F75%30.03 "Hg
* Reported Nov 19 12:00 pm — Dec 4 12:00 pm, Chatham-Kent, Weather by CustomWeather, © 2016

Note: Actual official high and low records may vary slightly from our data, if they occured in-between our weather recording intervals... More about our weather records

Advertising

Chatham-Kent Weather History for the Previous 24 Hours

Scroll right to see more
 ConditionsComfort  
Time TempWeatherWind HumidityBarometerVisibility
12:00 pm
Sun, Dec 4
40 °FQuite cool.9 mph64%30.19 "HgN/A
11:00 am40 °FQuite cool.7 mph64%30.22 "HgN/A
10:00 am39 °FChilly.2 mph70%30.24 "HgN/A
9:00 am39 °FChilly.2 mph68%30.24 "HgN/A
8:00 am37 °FChilly.1 mph73%30.25 "HgN/A
7:00 am37 °FChilly.1 mph72%30.25 "HgN/A
6:00 am37 °FChilly.2 mph71%30.25 "HgN/A
5:00 am37 °FChilly.2 mph70%30.26 "HgN/A
4:00 am37 °FChilly.2 mph71%30.26 "HgN/A
3:00 am38 °FChilly.3 mph73%30.28 "HgN/A
2:00 am38 °FChilly.6 mph74%30.28 "HgN/A
1:00 am38 °FChilly.5 mph74%30.28 "HgN/A
12:00 am38 °FChilly.5 mph74%30.29 "HgN/A
11:00 pm
Sat, Dec 3
38 °FChilly.6 mph73%30.29 "HgN/A
10:00 pm38 °FChilly.5 mph74%30.29 "HgN/A
9:00 pm38 °FChilly.6 mph74%30.28 "HgN/A
8:00 pm38 °FChilly.6 mph74%30.28 "HgN/A
7:00 pm38 °FChilly.6 mph74%30.29 "HgN/A
6:00 pm39 °FChilly.7 mph73%30.29 "HgN/A
5:00 pm39 °FChilly.7 mph71%30.29 "HgN/A
4:00 pm40 °FChilly.7 mph73%30.29 "HgN/A
3:00 pm40 °FChilly.9 mph73%30.28 "HgN/A
2:00 pm40 °FChilly.9 mph72%30.27 "HgN/A
1:00 pm40 °FChilly.7 mph73%30.24 "HgN/A
Weather by CustomWeather, © 2016

See weather overviewHow to use our weather pages